When you browse on this site, cookies collect data to enhance your experience and personalize the content and advertising you see.
Visit our Privacy Policy to learn more. By continuing to use the site, you agree to this use of cookies and data.
  • In Portugal
  • List of Countries
  • For 7 days
  • Water Temperature
  • Weather Map
  • Weather Widgets
  • user-avatar
    Login

    Hourly Weather Ali Bayramli

    Today, 12 November, Tuesday

    Time Temperature Precipitation Wind Pressure Humidity
    00:00 +12°C° 0 mm 0 mps 765 mmHg 87%
    01:00 +11°C° 0 mm 0 mps 765 mmHg 87%
    02:00 +11°C° 0 mm 0 mps 765 mmHg 87%
    03:00 +12°C° 0 mm 1 mps 766 mmHg 87%
    04:00 +10°C° 0 mm 0 mps 766 mmHg 87%
    05:00 +10°C° 0 mm 0 mps 766 mmHg 86%
    06:00 +10°C° 0 mm 0 mps 766 mmHg 86%
    07:00 +12°C° 0 mm 0 mps 766 mmHg 78%
    08:00 +15°C° 0 mm 1 mps 767 mmHg 69%
    09:00 +16°C° 0 mm 1 mps 767 mmHg 60%
    10:00 +18°C° 0 mm 1 mps 767 mmHg 54%
    11:00 +19°C° 0 mm 1 mps 766 mmHg 48%
    12:00 +18°C° 0 mm 0 mps 766 mmHg 42%
    13:00 +19°C° 0 mm 0 mps 766 mmHg 40%
    14:00 +19°C° 0 mm 0 mps 765 mmHg 38%
    15:00 +19°C° 0 mm 0 mps 765 mmHg 36%
    16:00 +20°C° 0 mm 1 mps 766 mmHg 45%
    17:00 +19°C° 0 mm 1 mps 766 mmHg 53%
    18:00 +16°C° 0 mm 2 mps 766 mmHg 62%
    19:00 +16°C° 0 mm 2 mps 766 mmHg 69%
    20:00 +15°C° 0 mm 1 mps 766 mmHg 76%
    21:00 +14°C° 0 mm 1 mps 766 mmHg 83%
    22:00 +14°C° 0 mm 1 mps 766 mmHg 85%
    23:00 +12°C° 0 mm 0 mps 766 mmHg 87%

    Tomorrow, 13 November, Wednesday

    Time Temperature Precipitation Wind Pressure Humidity
    00:00 +12°C° 0 mm 0 mps 766 mmHg 89%
    01:00 +11°C° 0 mm 0 mps 766 mmHg 89%
    02:00 +11°C° 0 mm 0 mps 766 mmHg 89%
    03:00 +11°C° 0 mm 0 mps 766 mmHg 90%
    04:00 +10°C° 0 mm 0 mps 766 mmHg 89%
    05:00 +10°C° 0 mm 0 mps 766 mmHg 89%
    06:00 +10°C° 0 mm 0 mps 766 mmHg 89%
    07:00 +11°C° 0 mm 0 mps 766 mmHg 80%
    08:00 +13°C° 0 mm 0 mps 766 mmHg 72%
    09:00 +15°C° 0 mm 0 mps 767 mmHg 63%
    10:00 +16°C° 0 mm 0 mps 766 mmHg 58%
    11:00 +17°C° 0 mm 0 mps 766 mmHg 53%
    12:00 +18°C° 0 mm 0 mps 766 mmHg 48%
    13:00 +20°C° 0 mm 1 mps 765 mmHg 48%
    14:00 +19°C° 0 mm 2 mps 765 mmHg 47%
    15:00 +19°C° 0 mm 2 mps 765 mmHg 46%
    16:00 +18°C° 0 mm 3 mps 765 mmHg 54%
    17:00 +17°C° 0 mm 3 mps 765 mmHg 62%
    18:00 +14°C° 0 mm 3 mps 766 mmHg 70%
    19:00 +14°C° 0 mm 3 mps 766 mmHg 74%
    20:00 +14°C° 0 mm 2 mps 766 mmHg 78%
    21:00 +14°C° 0 mm 2 mps 766 mmHg 82%
    22:00 +14°C° 0 mm 2 mps 766 mmHg 84%
    23:00 +13°C° 0 mm 1 mps 766 mmHg 85%

    Day after tomorrow, 14 November, Thursday

    Time Temperature Precipitation Wind Pressure Humidity
    00:00 +13°C° 0 mm 1 mps 766 mmHg 87%
    01:00 +13°C° 0 mm 1 mps 765 mmHg 88%
    02:00 +13°C° 0 mm 1 mps 765 mmHg 88%
    03:00 +12°C° 0 mm 1 mps 765 mmHg 89%
    04:00 +12°C° 0 mm 1 mps 765 mmHg 89%
    05:00 +12°C° 0 mm 1 mps 765 mmHg 89%
    06:00 +12°C° 0 mm 1 mps 765 mmHg 89%
    07:00 +13°C° 0 mm 2 mps 766 mmHg 82%
    08:00 +14°C° 0 mm 2 mps 766 mmHg 76%
    09:00 +14°C° 0 mm 3 mps 766 mmHg 69%
    10:00 +16°C° 0 mm 3 mps 766 mmHg 65%
    11:00 +17°C° 0 mm 3 mps 766 mmHg 61%
    12:00 +17°C° 0 mm 3 mps 766 mmHg 57%
    13:00 +17°C° 0 mm 4 mps 766 mmHg 58%
    14:00 +16°C° 0 mm 6 mps 766 mmHg 58%
    15:00 +15°C° 0 mm 8 mps 766 mmHg 59%
    16:00 +13°C° 0 mm 8 mps 766 mmHg 61%
    17:00 +12°C° 0 mm 8 mps 766 mmHg 62%
    18:00 +11°C° 0 mm 8 mps 767 mmHg 64%
    19:00 +10°C° 0 mm 9 mps 767 mmHg 62%
    20:00 +10°C° 0 mm 9 mps 768 mmHg 61%
    21:00 +10°C° 0 mm 9 mps 768 mmHg 59%
    22:00 +10°C° 0 mm 9 mps 768 mmHg 59%
    23:00 +9°C° 0 mm 8 mps 768 mmHg 59%

    15 November, Friday

    Time Temperature Precipitation Wind Pressure Humidity
    00:00 +9°C° 0 mm 7 mps 768 mmHg 59%
    01:00 +9°C° 0 mm 6 mps 768 mmHg 61%
    02:00 +10°C° 0 mm 4 mps 768 mmHg 62%
    03:00 +9°C° 0 mm 3 mps 767 mmHg 64%
    04:00 +10°C° 0 mm 3 mps 768 mmHg 63%
    05:00 +10°C° 0 mm 2 mps 768 mmHg 62%
    06:00 +10°C° 0 mm 2 mps 768 mmHg 61%
    07:00 +10°C° 0 mm 3 mps 768 mmHg 59%
    08:00 +11°C° 0 mm 4 mps 768 mmHg 56%
    09:00 +10°C° 0 mm 5 mps 768 mmHg 54%
    10:00 +11°C° 0 mm 6 mps 768 mmHg 51%
    11:00 +12°C° 0 mm 7 mps 768 mmHg 47%
    12:00 +12°C° 0 mm 7 mps 768 mmHg 43%
    13:00 +12°C° 0 mm 8 mps 768 mmHg 48%
    14:00 +11°C° 0 mm 8 mps 768 mmHg 52%
    15:00 +11°C° 0 mm 9 mps 768 mmHg 56%
    16:00 +10°C° 0 mm 8 mps 768 mmHg 60%
    17:00 +9°C° 0 mm 7 mps 768 mmHg 64%
    18:00 +9°C° 0 mm 5 mps 769 mmHg 68%
    19:00 +9°C° 0 mm 5 mps 769 mmHg 68%
    20:00 +8°C° 0 mm 5 mps 769 mmHg 68%
    21:00 +8°C° 0 mm 5 mps 769 mmHg 68%
    22:00 +8°C° 0 mm 4 mps 769 mmHg 68%
    23:00 +8°C° 0 mm 4 mps 769 mmHg 68%

    16 November, Saturday

    Time Temperature Precipitation Wind Pressure Humidity
    00:00 +8°C° 0 mm 4 mps 769 mmHg 68%
    01:00 +7°C° 0 mm 4 mps 769 mmHg 70%
    02:00 +7°C° 0 mm 4 mps 769 mmHg 72%
    03:00 +8°C° 0 mm 3 mps 769 mmHg 74%
    04:00 +8°C° 0 mm 3 mps 769 mmHg 75%
    05:00 +7°C° 0 mm 3 mps 769 mmHg 76%
    06:00 +7°C° 0 mm 3 mps 769 mmHg 77%
    07:00 +8°C° 0 mm 3 mps 769 mmHg 70%
    08:00 +10°C° 0 mm 4 mps 770 mmHg 63%
    09:00 +11°C° 0 mm 4 mps 770 mmHg 56%
    10:00 +11°C° 0 mm 4 mps 770 mmHg 52%
    11:00 +12°C° 0 mm 4 mps 770 mmHg 48%
    12:00 +13°C° 0 mm 4 mps 770 mmHg 44%
    13:00 +13°C° 0 mm 4 mps 770 mmHg 43%
    14:00 +13°C° 0 mm 5 mps 769 mmHg 43%
    15:00 +13°C° 0 mm 5 mps 769 mmHg 43%
    16:00 +12°C° 0 mm 5 mps 770 mmHg 46%
    17:00 +11°C° 0 mm 4 mps 770 mmHg 50%
    18:00 +10°C° 0 mm 4 mps 770 mmHg 54%
    19:00 +10°C° 0 mm 4 mps 770 mmHg 56%
    20:00 +10°C° 0 mm 4 mps 770 mmHg 58%
    21:00 +8°C° 0 mm 4 mps 771 mmHg 60%
    22:00 +8°C° 0 mm 4 mps 770 mmHg 61%
    23:00 +8°C° 0 mm 4 mps 770 mmHg 62%

    17 November, Sunday

    Time Temperature Precipitation Wind Pressure Humidity
    00:00 +8°C° 0 mm 4 mps 770 mmHg 63%
    01:00 +9°C° 0 mm 3 mps 770 mmHg 64%
    02:00 +9°C° 0 mm 3 mps 770 mmHg 64%
    03:00 +9°C° 0 mm 3 mps 770 mmHg 64%
    04:00 +9°C° 0 mm 2 mps 770 mmHg 63%
    05:00 +9°C° 0 mm 2 mps 770 mmHg 63%
    06:00 +9°C° 0 mm 2 mps 770 mmHg 62%
    07:00 +9°C° 0 mm 2 mps 770 mmHg 61%
    08:00 +9°C° 0 mm 2 mps 770 mmHg 59%
    09:00 +10°C° 0 mm 2 mps 770 mmHg 57%
    10:00 +12°C° 0 mm 2 mps 770 mmHg 54%
    11:00 +13°C° 0 mm 2 mps 770 mmHg 50%
    12:00 +15°C° 0 mm 2 mps 770 mmHg 47%
    13:00 +15°C° 0 mm 1 mps 769 mmHg 46%
    14:00 +15°C° 0 mm 1 mps 769 mmHg 46%
    15:00 +16°C° 0 mm 1 mps 769 mmHg 45%
    16:00 +15°C° 0 mm 1 mps 769 mmHg 50%
    17:00 +14°C° 0 mm 1 mps 769 mmHg 54%
    18:00 +13°C° 0 mm 1 mps 769 mmHg 59%
    19:00 +13°C° 0 mm 2 mps 769 mmHg 61%
    20:00 +12°C° 0 mm 2 mps 769 mmHg 64%
    21:00 +12°C° 0 mm 2 mps 769 mmHg 66%
    22:00 +12°C° 0 mm 2 mps 768 mmHg 67%
    23:00 +12°C° 0 mm 2 mps 768 mmHg 68%
    Show more